Вернуться в каталог

THORAD AGENA D DEB

АктивенLEO
NORAD 4171·DEBRIS·🇺🇸 United States

Запущен Sep 30, 1969 с Vandenberg Space Force Base

Loading…

Ближайшие Пролёты (ближайшие 24 часа)

TLE

СвежийSource: Space-Track

Эпоха: Sep 14, 2026, 14:02 UTC

1  4171U 69082AP  26257.58494091  .00000525  00000-0  19160-3 0  9992
2  4171  70.0771 330.1191 0035796 346.3815  13.6344 14.37907446952041

Отслеживайте THORAD AGENA D DEB в реальном времени с AllMySat

Download on the App Store